Date,TemperatureHighF,TemperatureAvgF,TemperatureLowF,DewpointHighF,DewpointAvgF,DewpointLowF,HumidityHigh,HumidityAvg,HumidityLow,PressureMaxIn,PressureMinIn,WindSpeedMaxMPH,WindSpeedAvgMPH,GustSpeedMaxMPH,PrecipitationSumIn
2013-2-1,41,33,27,33,29,24,95,86,72,30.32,30.07,4,0,6,0.00
2013-2-2,34,28,24,29,26,22,95,91,83,30.35,30.13,3,0,4,0.00
2013-2-3,34,30,26,30,28,25,95,92,86,30.14,29.98,4,0,4,0.00
2013-2-4,40,32,26,34,30,24,96,90,78,30.00,29.81,3,0,3,0.01
2013-2-5,40,34,29,35,32,27,95,91,81,29.81,29.65,2,0,3,0.00
2013-2-6,45,35,26,37,31,25,97,88,69,29.88,29.74,2,0,3,0.01
2013-2-7,50,40,31,36,29,24,95,67,39,29.91,29.71,11,1,13,0.00
2013-2-8,49,38,26,28,25,21,87,60,34,30.03,29.91,12,1,14,0.00
2013-2-9,51,38,28,31,27,24,88,67,45,30.07,29.89,13,1,13,0.00
2013-2-10,50,35,26,32,27,23,92,75,47,30.14,30.02,3,0,3,0.00
2013-2-11,40,32,24,31,27,22,94,83,68,30.09,30.03,7,0,9,0.00
2013-2-12,45,35,29,35,30,26,92,83,63,30.15,29.97,4,0,4,0.00
2013-2-13,55,40,28,37,28,26,95,66,35,30.21,29.97,10,1,14,0.00
2013-2-14,50,40,33,33,29,25,81,66,48,30.37,30.21,4,0,5,0.00
2013-2-15,51,36,27,35,29,24,94,75,52,30.39,30.11,3,0,3,0.00
2013-2-16,53,37,26,37,30,24,94,76,37,30.11,29.79,11,1,17,0.00
2013-2-17,51,41,31,31,26,22,81,57,32,29.95,29.86,12,1,12,0.00
2013-2-18,40,33,27,30,26,22,92,75,62,29.92,29.63,7,0,7,0.00
2013-2-19,48,36,27,30,27,22,89,71,45,29.78,29.60,5,0,7,0.00
2013-2-20,48,33,22,29,24,19,92,72,46,29.86,29.76,3,0,3,0.00
2013-2-21,47,35,25,32,27,22,89,75,49,29.86,29.76,7,0,11,0.00
2013-2-22,44,37,30,38,30,22,91,78,46,29.80,29.43,9,1,14,0.01
2013-2-23,50,42,35,29,26,23,75,53,34,30.09,29.59,15,3,17,0.00
2013-2-24,47,39,32,30,27,24,80,62,48,30.10,29.83,9,0,11,0.00
2013-2-25,51,39,30,36,28,19,93,68,29,30.00,29.71,19,1,22,0.01
2013-2-26,52,41,28,26,24,22,79,53,33,30.12,30.00,7,1,11,0.00
2013-2-27,54,39,26,33,28,22,88,66,41,30.12,30.01,3,0,4,0.00
2013-2-28,42,38,36,39,35,29,94,87,74,30.16,30.06,6,0,7,0.25